THY8VP LTFM-HTZA

Flight info

Callsign THY8VP
Flight time N/A
Altitude 33000
Route RATVU UT35 AYT UM855 TOMBI M855 RASDA A16 BLT/N0459F350 A16 CVO A727 LXR P751 TOMRU DCT KSL/N0463F360 DCT ALRAP/N0463F350 UT124 LABLA/N0461F370 UT124 GWZ/N0463F360 UM308 GETOL/N0461F370 UT129 ALEMU/N0461F360 UN301 MOV UM310 UVUKO UL431 EGPET
Aircraft B38M/M-SDE1FGHILORVWXY/HB1

Departure

Time N/A
Airport İstanbul Airport (LTFM)

Arrival

Time 2026-04-17 23:15
Airport Abeid Amani Karume International Airport (HTZA)
Time Latitude Longitude Altitude Speed Heading
2026-04-17 22:39 -2.78018 39.73048 36918 ft 458 kts 185°
2026-04-17 22:40 -2.84325 39.72575 36916 ft 457 kts 185°
2026-04-17 22:40 -2.90709 39.72096 36916 ft 457 kts 185°
2026-04-17 22:41 -2.97061 39.71619 36926 ft 457 kts 185°
2026-04-17 22:41 -3.03357 39.71147 36919 ft 457 kts 185°
2026-04-17 22:42 -3.09690 39.70672 36915 ft 457 kts 185°
2026-04-17 22:42 -3.16028 39.70195 36913 ft 457 kts 185°
2026-04-17 22:43 -3.22368 39.69720 36908 ft 457 kts 185°
2026-04-17 22:43 -3.28707 39.69244 36900 ft 457 kts 185°
2026-04-17 22:44 -3.35041 39.68768 36900 ft 457 kts 185°
2026-04-17 22:44 -3.41378 39.68293 36902 ft 457 kts 185°
2026-04-17 22:45 -3.47723 39.67816 36907 ft 457 kts 185°
2026-04-17 22:45 -3.54056 39.67340 36897 ft 457 kts 185°
2026-04-17 22:46 -3.60426 39.66862 36909 ft 460 kts 185°
2026-04-17 22:46 -3.66809 39.66383 36920 ft 460 kts 185°
2026-04-17 22:47 -3.73187 39.65903 36916 ft 459 kts 185°
2026-04-17 22:47 -3.79519 39.65427 36916 ft 459 kts 185°
2026-04-17 22:48 -3.85893 39.64947 36907 ft 460 kts 185°
2026-04-17 22:48 -3.92283 39.64468 36911 ft 460 kts 185°
2026-04-17 22:49 -3.98555 39.63568 36540 ft 448 kts 192°
2026-04-17 22:49 -4.01610 39.63003 35958 ft 447 kts 191°
2026-04-17 22:49 -4.04670 39.62429 35328 ft 447 kts 191°
2026-04-17 22:50 -4.07725 39.61855 34805 ft 445 kts 191°
2026-04-17 22:50 -4.10760 39.61284 34304 ft 443 kts 191°
2026-04-17 22:50 -4.13779 39.60716 33778 ft 441 kts 191°
2026-04-17 22:50 -4.16790 39.60149 33200 ft 439 kts 191°
2026-04-17 22:51 -4.19785 39.59587 32672 ft 437 kts 191°
2026-04-17 22:51 -4.22759 39.59027 32184 ft 434 kts 191°
2026-04-17 22:51 -4.25717 39.58470 31698 ft 431 kts 191°
2026-04-17 22:51 -4.28653 39.57918 31210 ft 429 kts 191°
2026-04-17 22:52 -4.31581 39.57368 30720 ft 427 kts 191°
2026-04-17 22:52 -4.34495 39.56819 30232 ft 425 kts 190°
2026-04-17 22:52 -4.37397 39.56274 29707 ft 424 kts 190°
2026-04-17 22:52 -4.40289 39.55729 29162 ft 422 kts 190°
2026-04-17 22:53 -4.43162 39.55188 28685 ft 418 kts 190°
2026-04-17 22:53 -4.46011 39.54652 28238 ft 415 kts 190°
2026-04-17 22:53 -4.48835 39.54121 27798 ft 412 kts 190°
2026-04-17 22:53 -4.51641 39.53592 27354 ft 409 kts 190°
2026-04-17 22:54 -4.54430 39.53067 26919 ft 407 kts 189°
2026-04-17 22:54 -4.57203 39.52545 26476 ft 404 kts 189°
2026-04-17 22:54 -4.59961 39.52025 26057 ft 402 kts 190°
2026-04-17 22:54 -4.62706 39.51508 25634 ft 401 kts 190°
2026-04-17 22:55 -4.65439 39.50994 25216 ft 399 kts 190°
2026-04-17 22:55 -4.68165 39.50480 24808 ft 398 kts 189°
2026-04-17 22:55 -4.70895 39.50048 24348 ft 397 kts 183°
2026-04-17 22:55 -4.73650 39.49849 23915 ft 396 kts 183°
2026-04-17 22:56 -4.76385 39.49624 23539 ft 395 kts 184°
2026-04-17 22:56 -4.79123 39.49385 23065 ft 394 kts 184°
2026-04-17 22:56 -4.81846 39.49140 22627 ft 392 kts 184°
2026-04-17 22:56 -4.84547 39.48895 22216 ft 389 kts 184°
2026-04-17 22:57 -4.87238 39.48649 21812 ft 387 kts 184°
2026-04-17 22:57 -4.89904 39.48406 21423 ft 384 kts 184°
2026-04-17 22:57 -4.92562 39.48163 21023 ft 382 kts 184°
2026-04-17 22:57 -4.95199 39.47922 20629 ft 380 kts 184°
2026-04-17 22:58 -4.97829 39.47681 20233 ft 378 kts 184°
2026-04-17 22:58 -5.00445 39.47442 19845 ft 377 kts 184°
2026-04-17 22:58 -5.03049 39.47204 19456 ft 375 kts 184°
2026-04-17 22:58 -5.05641 39.46967 19068 ft 374 kts 184°
2026-04-17 22:59 -5.08227 39.46730 18681 ft 372 kts 184°
2026-04-17 22:59 -5.10805 39.46495 18292 ft 371 kts 184°
2026-04-17 22:59 -5.13371 39.46260 17862 ft 370 kts 184°
2026-04-17 22:59 -5.15931 39.46026 17453 ft 368 kts 184°
2026-04-17 23:00 -5.18470 39.45794 17065 ft 365 kts 184°
2026-04-17 23:00 -5.20992 39.45563 16683 ft 363 kts 184°
2026-04-17 23:00 -5.23500 39.45333 16304 ft 360 kts 184°
2026-04-17 23:00 -5.25985 39.45106 15928 ft 358 kts 184°
2026-04-17 23:01 -5.28461 39.44879 15555 ft 356 kts 184°
2026-04-17 23:01 -5.30920 39.44654 15179 ft 354 kts 184°
2026-04-17 23:01 -5.33366 39.44430 14806 ft 352 kts 184°
2026-04-17 23:01 -5.35802 39.44208 14435 ft 350 kts 184°
2026-04-17 23:02 -5.38225 39.43986 14072 ft 349 kts 183°
2026-04-17 23:02 -5.40635 39.43764 13699 ft 347 kts 184°
2026-04-17 23:02 -5.43034 39.43545 13286 ft 346 kts 184°
2026-04-17 23:02 -5.45419 39.43327 12902 ft 343 kts 184°
2026-04-17 23:03 -5.47788 39.43110 12533 ft 340 kts 183°
2026-04-17 23:03 -5.50141 39.42894 12172 ft 338 kts 183°
2026-04-17 23:03 -5.52471 39.42681 11817 ft 335 kts 184°
2026-04-17 23:03 -5.54791 39.42468 11460 ft 333 kts 183°
2026-04-17 23:04 -5.57090 39.42258 11103 ft 331 kts 184°
2026-04-17 23:04 -5.59379 39.42048 10750 ft 329 kts 184°
2026-04-17 23:04 -5.61651 39.41840 10397 ft 327 kts 183°
2026-04-17 23:04 -5.63905 39.41634 10163 ft 321 kts 183°
2026-04-17 23:05 -5.66098 39.41432 10018 ft 312 kts 183°
2026-04-17 23:05 -5.68245 39.41236 9772 ft 307 kts 183°
2026-04-17 23:05 -5.70369 39.41041 9399 ft 307 kts 183°
2026-04-17 23:05 -5.72491 39.40847 9037 ft 305 kts 183°
2026-04-17 23:06 -5.74599 39.40654 8701 ft 304 kts 183°
2026-04-17 23:06 -5.76671 39.40463 8363 ft 302 kts 183°
2026-04-17 23:06 -5.78754 39.40273 8036 ft 300 kts 183°
2026-04-17 23:06 -5.80828 39.40082 7708 ft 298 kts 183°
2026-04-17 23:07 -5.82885 39.39894 7388 ft 297 kts 183°
2026-04-17 23:07 -5.84934 39.39706 7065 ft 295 kts 183°
2026-04-17 23:07 -5.86975 39.39500 6737 ft 294 kts 188°
2026-04-17 23:07 -5.88874 39.38737 6381 ft 298 kts 211°
2026-04-17 23:08 -5.90612 39.37621 6058 ft 295 kts 210°
2026-04-17 23:08 -5.92350 39.36528 5734 ft 294 kts 210°
2026-04-17 23:08 -5.94075 39.35440 5415 ft 292 kts 210°
2026-04-17 23:08 -5.95787 39.34359 5103 ft 290 kts 210°
2026-04-17 23:09 -5.97482 39.33289 4836 ft 286 kts 210°
2026-04-17 23:09 -5.99144 39.32237 4694 ft 278 kts 210°
2026-04-17 23:09 -6.00732 39.31185 4555 ft 270 kts 218°
2026-04-17 23:09 -6.01808 39.29672 4374 ft 268 kts 249°
2026-04-17 23:10 -6.02116 39.27853 4219 ft 261 kts 263°
2026-04-17 23:10 -6.02284 39.26086 4027 ft 249 kts 262°
2026-04-17 23:10 -6.02468 39.24333 3524 ft 258 kts 262°
2026-04-17 23:10 -6.02989 39.22632 3197 ft 251 kts 236°
2026-04-17 23:11 -6.04145 39.21427 3010 ft 232 kts 208°
2026-04-17 23:11 -6.05600 39.20936 2873 ft 211 kts 184°
2026-04-17 23:11 -6.06998 39.20957 2728 ft 195 kts 173°
2026-04-17 23:11 -6.08331 39.21092 2485 ft 189 kts 173°
2026-04-17 23:12 -6.09605 39.21224 2266 ft 176 kts 173°
2026-04-17 23:12 -6.10380 39.21303 2111 ft 163 kts 173°
2026-04-17 23:12 -6.11438 39.21409 1958 ft 146 kts 173°
2026-04-17 23:12 -6.12772 39.21548 1684 ft 144 kts 173°
2026-04-17 23:13 -6.13445 39.21621 1539 ft 144 kts 173°
2026-04-17 23:13 -6.14444 39.21723 1355 ft 144 kts 174°
2026-04-17 23:13 -6.15428 39.21809 1155 ft 142 kts 173°
2026-04-17 23:13 -6.16412 39.21911 985 ft 145 kts 173°
2026-04-17 23:14 -6.17424 39.22013 810 ft 147 kts 174°
2026-04-17 23:14 -6.18440 39.22114 602 ft 146 kts 173°
2026-04-17 23:14 -6.19442 39.22219 399 ft 144 kts 174°
2026-04-17 23:14 -6.20442 39.22318 213 ft 144 kts 174°
2026-04-17 23:15 -6.21425 39.22415 73 ft 139 kts 174°
2026-04-17 23:15 -6.22195 39.22490 58 ft 76 kts 174°
2026-04-17 23:15 -6.22568 39.22527 56 ft 47 kts 174°
2026-04-17 23:15 -6.22879 39.22557 59 ft 34 kts 175°
2026-04-17 23:16 -6.22987 39.22505 53 ft 18 kts 261°
2026-04-17 23:16 -6.22967 39.22396 51 ft 11 kts 340°
2026-04-17 23:16 -6.22889 39.22386 59 ft 12 kts 356°
2026-04-17 23:16 -6.22800 39.22380 60 ft 14 kts 356°
2026-04-17 23:17 -6.22671 39.22366 59 ft 22 kts 353°
2026-04-17 23:17 -6.22509 39.22350 59 ft 24 kts 354°
2026-04-17 23:17 -6.22338 39.22334 57 ft 23 kts 354°
2026-04-17 23:17 -6.22248 39.22325 57 ft 10 kts 352°
2026-04-17 23:18 -6.22222 39.22280 60 ft 8 kts 265°
2026-04-17 23:18 -6.22224 39.22255 57 ft 3 kts 265°
2026-04-17 23:18 -6.22225 39.22246 56 ft 0 kts 265°